When you browse on this site, cookies collect data to enhance your experience and personalize the content and advertising you see.
Visit our Privacy Policy to learn more. By continuing to use the site, you agree to this use of cookies and data.
  • In Österreich
  • Länderverzeichnis
  • Für 7 Tage
  • Wassertemperatur
  • Satellitenkarten
  • Wetterkarte
  • News
  • Widgets
  • user-avatar
    Anmelden

    Stündliche Wetter Sherpur

    Heute, 27 Juni, Donnerstag

    Zeit Temperatur Niederschläge Wind Luftdruck Luftfeuchtigkeit
    00:00 +21°C° 0 mm 2 m/S 608 mmHg 25%
    01:00 +20°C° 0 mm 2 m/S 608 mmHg 27%
    02:00 +19°C° 0 mm 2 m/S 608 mmHg 28%
    03:00 +18°C° 0 mm 2 m/S 607 mmHg 29%
    04:00 +18°C° 0 mm 2 m/S 607 mmHg 30%
    05:00 +17°C° 0 mm 2 m/S 607 mmHg 31%
    06:00 +19°C° 0 mm 2 m/S 608 mmHg 27%
    07:00 +21°C° 0 mm 2 m/S 609 mmHg 24%
    08:00 +24°C° 0 mm 2 m/S 609 mmHg 21%
    09:00 +25°C° 0 mm 2 m/S 610 mmHg 18%
    10:00 +26°C° 0 mm 3 m/S 610 mmHg 16%
    11:00 +28°C° 0 mm 3 m/S 610 mmHg 13%
    12:00 +29°C° 0 mm 4 m/S 610 mmHg 12%
    13:00 +30°C° 0 mm 4 m/S 610 mmHg 11%
    14:00 +32°C° 0 mm 4 m/S 610 mmHg 10%
    15:00 +30°C° 0 mm 5 m/S 610 mmHg 10%
    16:00 +30°C° 0 mm 6 m/S 609 mmHg 10%
    17:00 +30°C° 0 mm 7 m/S 609 mmHg 10%
    18:00 +29°C° 0 mm 6 m/S 608 mmHg 12%
    19:00 +27°C° 0 mm 5 m/S 608 mmHg 15%
    20:00 +25°C° 0 mm 4 m/S 607 mmHg 17%
    21:00 +24°C° 0 mm 3 m/S 607 mmHg 18%
    22:00 +22°C° 0 mm 3 m/S 607 mmHg 20%
    23:00 +21°C° 0 mm 2 m/S 607 mmHg 21%

    Morgen, 28 Juni, Freitag

    Zeit Temperatur Niederschläge Wind Luftdruck Luftfeuchtigkeit
    00:00 +21°C° 0 mm 2 m/S 607 mmHg 23%
    01:00 +20°C° 0 mm 2 m/S 607 mmHg 24%
    02:00 +19°C° 0 mm 2 m/S 606 mmHg 26%
    03:00 +18°C° 0 mm 2 m/S 606 mmHg 27%
    04:00 +18°C° 0 mm 2 m/S 606 mmHg 28%
    05:00 +18°C° 0 mm 1 m/S 606 mmHg 29%
    06:00 +20°C° 0 mm 1 m/S 607 mmHg 26%
    07:00 +22°C° 0 mm 1 m/S 608 mmHg 23%
    08:00 +24°C° 0 mm 1 m/S 609 mmHg 19%
    09:00 +25°C° 0 mm 2 m/S 609 mmHg 18%
    10:00 +27°C° 0 mm 2 m/S 609 mmHg 16%
    11:00 +28°C° 0 mm 3 m/S 610 mmHg 14%
    12:00 +29°C° 0 mm 3 m/S 610 mmHg 14%
    13:00 +30°C° 0 mm 3 m/S 609 mmHg 13%
    14:00 +31°C° 0 mm 3 m/S 609 mmHg 12%
    15:00 +31°C° 0 mm 3 m/S 609 mmHg 12%
    16:00 +32°C° 0 mm 4 m/S 609 mmHg 13%
    17:00 +32°C° 0 mm 4 m/S 609 mmHg 13%
    18:00 +30°C° 0 mm 4 m/S 608 mmHg 15%
    19:00 +28°C° 0 mm 4 m/S 608 mmHg 17%
    20:00 +26°C° 0 mm 4 m/S 607 mmHg 20%
    21:00 +25°C° 0 mm 3 m/S 607 mmHg 21%
    22:00 +25°C° 0 mm 3 m/S 607 mmHg 23%
    23:00 +24°C° 0 mm 2 m/S 607 mmHg 24%

    übermorgen, 29 Juni, Samstag

    Zeit Temperatur Niederschläge Wind Luftdruck Luftfeuchtigkeit
    00:00 +23°C° 0 mm 2 m/S 607 mmHg 26%
    01:00 +22°C° 0 mm 1 m/S 607 mmHg 28%
    02:00 +21°C° 0 mm 1 m/S 606 mmHg 30%
    03:00 +21°C° 0 mm 1 m/S 606 mmHg 31%
    04:00 +20°C° 0 mm 1 m/S 605 mmHg 32%
    05:00 +19°C° 0 mm 1 m/S 605 mmHg 33%
    06:00 +21°C° 0 mm 1 m/S 606 mmHg 29%
    07:00 +21°C° 0 mm 0 m/S 607 mmHg 25%
    08:00 +23°C° 0 mm 0 m/S 608 mmHg 22%
    09:00 +27°C° 0 mm 1 m/S 608 mmHg 20%
    10:00 +28°C° 0 mm 1 m/S 608 mmHg 18%
    11:00 +30°C° 0 mm 1 m/S 609 mmHg 16%
    12:00 +30°C° 0 mm 1 m/S 609 mmHg 16%
    13:00 +31°C° 0 mm 2 m/S 609 mmHg 15%
    14:00 +32°C° 0 mm 2 m/S 609 mmHg 14%
    15:00 +33°C° 0 mm 3 m/S 608 mmHg 16%
    16:00 +32°C° 0 mm 5 m/S 608 mmHg 18%
    17:00 +30°C° 0 mm 7 m/S 607 mmHg 19%
    18:00 +29°C° 0 mm 5 m/S 607 mmHg 23%
    19:00 +28°C° 0 mm 3 m/S 607 mmHg 26%
    20:00 +26°C° 0 mm 1 m/S 607 mmHg 29%
    21:00 +26°C° 0 mm 1 m/S 607 mmHg 30%
    22:00 +25°C° 0 mm 1 m/S 607 mmHg 32%
    23:00 +24°C° 0 mm 1 m/S 607 mmHg 34%

    30 Juni, Sonntag

    Zeit Temperatur Niederschläge Wind Luftdruck Luftfeuchtigkeit
    00:00 +23°C° 0 mm 1 m/S 607 mmHg 36%
    01:00 +23°C° 0 mm 1 m/S 606 mmHg 37%
    02:00 +22°C° 0 mm 1 m/S 606 mmHg 39%
    03:00 +21°C° 0 mm 1 m/S 606 mmHg 41%
    04:00 +21°C° 0 mm 1 m/S 605 mmHg 43%
    05:00 +20°C° 0 mm 1 m/S 605 mmHg 44%
    06:00 +20°C° 0 mm 0 m/S 606 mmHg 39%
    07:00 +22°C° 0 mm 0 m/S 607 mmHg 34%
    08:00 +24°C° 0 mm 0 m/S 608 mmHg 29%
    09:00 +28°C° 0 mm 1 m/S 608 mmHg 26%
    10:00 +29°C° 0 mm 1 m/S 609 mmHg 23%
    11:00 +31°C° 0 mm 1 m/S 609 mmHg 21%
    12:00 +32°C° 0 mm 1 m/S 609 mmHg 19%
    13:00 +34°C° 0 mm 2 m/S 609 mmHg 16%
    14:00 +35°C° 0 mm 2 m/S 609 mmHg 14%
    15:00 +35°C° 0 mm 3 m/S 609 mmHg 14%
    16:00 +35°C° 0 mm 3 m/S 609 mmHg 14%
    17:00 +35°C° 0 mm 4 m/S 609 mmHg 13%
    18:00 +34°C° 0 mm 4 m/S 609 mmHg 16%
    19:00 +32°C° 0 mm 4 m/S 608 mmHg 18%
    20:00 +30°C° 0 mm 4 m/S 608 mmHg 21%
    21:00 +28°C° 0 mm 3 m/S 608 mmHg 23%
    22:00 +27°C° 0 mm 3 m/S 608 mmHg 25%
    23:00 +26°C° 0 mm 2 m/S 608 mmHg 27%

    1 Juli, Montag

    Zeit Temperatur Niederschläge Wind Luftdruck Luftfeuchtigkeit
    00:00 +25°C° 0 mm 2 m/S 608 mmHg 29%
    01:00 +24°C° 0 mm 2 m/S 607 mmHg 30%
    02:00 +24°C° 0 mm 1 m/S 607 mmHg 32%
    03:00 +23°C° 0 mm 1 m/S 607 mmHg 33%
    04:00 +22°C° 0 mm 1 m/S 606 mmHg 34%
    05:00 +22°C° 0 mm 1 m/S 606 mmHg 35%
    06:00 +23°C° 0 mm 1 m/S 607 mmHg 30%
    07:00 +25°C° 0 mm 2 m/S 608 mmHg 26%
    08:00 +27°C° 0 mm 2 m/S 609 mmHg 22%
    09:00 +29°C° 0 mm 2 m/S 610 mmHg 18%
    10:00 +30°C° 0 mm 2 m/S 610 mmHg 15%
    11:00 +33°C° 0 mm 3 m/S 610 mmHg 12%
    12:00 +34°C° 0 mm 3 m/S 610 mmHg 11%
    13:00 +35°C° 0 mm 4 m/S 610 mmHg 10%
    14:00 +35°C° 0 mm 4 m/S 610 mmHg 9%
    15:00 +35°C° 0 mm 5 m/S 610 mmHg 10%
    16:00 +35°C° 0 mm 6 m/S 610 mmHg 10%
    17:00 +35°C° 0 mm 7 m/S 610 mmHg 11%
    18:00 +33°C° 0 mm 6 m/S 609 mmHg 12%
    19:00 +30°C° 0 mm 5 m/S 609 mmHg 14%
    20:00 +29°C° 0 mm 4 m/S 609 mmHg 16%
    21:00 +27°C° 0 mm 4 m/S 609 mmHg 18%
    22:00 +26°C° 0 mm 3 m/S 609 mmHg 19%
    23:00 +25°C° 0 mm 2 m/S 609 mmHg 21%

    2 Juli, Dienstag

    Zeit Temperatur Niederschläge Wind Luftdruck Luftfeuchtigkeit
    00:00 +24°C° 0 mm 2 m/S 608 mmHg 23%
    01:00 +23°C° 0 mm 2 m/S 608 mmHg 24%
    02:00 +22°C° 0 mm 1 m/S 607 mmHg 26%
    03:00 +21°C° 0 mm 1 m/S 607 mmHg 26%
    04:00 +21°C° 0 mm 1 m/S 607 mmHg 27%
    05:00 +20°C° 0 mm 1 m/S 607 mmHg 27%
    06:00 +23°C° 0 mm 1 m/S 608 mmHg 24%
    07:00 +25°C° 0 mm 1 m/S 609 mmHg 20%
    08:00 +27°C° 0 mm 1 m/S 610 mmHg 16%
    09:00 +29°C° 0 mm 1 m/S 611 mmHg 14%
    10:00 +30°C° 0 mm 1 m/S 611 mmHg 12%
    11:00 +32°C° 0 mm 1 m/S 611 mmHg 10%
    12:00 +33°C° 0 mm 1 m/S 611 mmHg 9%
    13:00 +35°C° 0 mm 2 m/S 611 mmHg 8%
    14:00 +36°C° 0 mm 2 m/S 611 mmHg 7%
    15:00 +36°C° 0 mm 3 m/S 611 mmHg 8%
    16:00 +36°C° 0 mm 3 m/S 611 mmHg 8%
    17:00 +37°C° 0 mm 4 m/S 611 mmHg 8%
    18:00 +35°C° 0 mm 4 m/S 611 mmHg 10%
    19:00 +33°C° 0 mm 3 m/S 610 mmHg 12%
    20:00 +30°C° 0 mm 3 m/S 610 mmHg 14%
    21:00 +29°C° 0 mm 3 m/S 610 mmHg 16%
    22:00 +27°C° 0 mm 3 m/S 610 mmHg 17%
    23:00 +26°C° 0 mm 2 m/S 609 mmHg 19%
    Mehr zeigen